Miscellaneous Local Product
Issued by NWS Hastings, NE

Home | Current Version | Previous Version | Graphics & Text | Print | Product List | Glossary On
Versions: 1 2 3 4 5 6 7 8 9 10 11 12 13 14 15 16 17 18 19 20 21 22 23 24 25 26 27 28 29 30 31 32 33 34 35 36 37 38 39 40 41 42 43 44 45 46 47 48 49 50
000
AXUS43 KGID 290302
MISGRI

GID CWA HOURLY WEATHER ROUNDUP
NATIONAL WEATHER SERVICE HASTINGS NE
1000 PM CDT MON JUL 28 2014

NOTE: "FAIR" INDICATES FEW OR NO CLOUDS BELOW 12,000 FEET WITH NO
SIGNIFICANT WEATHER AND/OR OBSTRUCTIONS TO VISIBILITY.

...SOUTH CENTRAL NEBRASKA...

CITY           SKY/WX    TMP DP  RH WIND       PRES   REMARKS
GRAND ISLAND   CLEAR     66  57  72 E8        30.22S
HASTINGS       CLEAR     69  56  62 E8        30.22R
KEARNEY        CLEAR     66  57  72 E7        30.22R
ORD            CLEAR     66  58  75 SE3       30.21R
YORK           CLEAR     63  57  82 CALM      30.22S
AURORA         CLEAR     65  60  83 E6        30.22S
LEXINGTON      CLEAR     70  60  70 E9        30.21R
HOLDREGE       PTCLDY    67  60  77 E8        30.21R
HEBRON         CLEAR     65  56  74 E3        30.21R

...NEBRASKA PANHANDLE...

CITY           SKY/WX    TMP DP  RH WIND       PRES   REMARKS
CHADRON        CLEAR     75  55  49 NE9       30.21R
ALLIANCE       CLEAR     75  58  55 E10       30.22R
SCOTTSBLUFF    CLEAR     74  60  61 E7        30.21R
SIDNEY         CLOUDY    76  54  46 S9        30.26R

...WESTERN AND NORTH CENTRAL NEBRASKA...

CITY           SKY/WX    TMP DP  RH WIND       PRES   REMARKS
VALENTINE      CLEAR     69  52  54 NE8       30.23R
AINSWORTH      CLEAR     65  56  72 E6        30.23S
ONEILL         CLEAR     64  55  74 E7        30.23S
BROKEN BOW     CLEAR     66  58  75 E5        30.22S
IMPERIAL       MOCLDY    75  57  53 SE10      30.22R
NORTH PLATTE   CLEAR     66  59  78 E6        30.21R
MCCOOK         PTCLDY    72  60  66 E8        30.21R

...EASTERN NEBRASKA...

CITY           SKY/WX    TMP DP  RH WIND       PRES   REMARKS
NORFOLK        CLEAR     64  53  67 NE3       30.22R
SO SIOUX CITY  CLEAR     65  56  72 N3        30.20R
TEKAMAH        CLEAR     65  57  75 NW6       30.19R
ALBION         CLEAR     63  55  76 NE7       30.22S
OMAHA EPPLEY   CLEAR     68  57  68 CALM      30.18R
OFFUTT AFB     CLEAR     65  57  76 CALM      30.18R
MILLARD        CLEAR     70  56  61 NW5       30.18S
LINCOLN        CLEAR     66  53  63 N5        30.21R
NEBRASKA CITY  CLEAR     65  54  67 NW6       30.19R
BEATRICE       CLEAR     62  56  83 N6        30.20S
FALLS CITY     CLEAR     67  56  67 NW3       30.17R

...NORTHERN KANSAS...

CITY           SKY/WX    TMP DP  RH WIND       PRES   REMARKS
GOODLAND       CLOUDY    70  55  59 S9        30.24S
HILL CITY      PTCLDY    78  58  49 SE7       30.19R
NORTON         CLEAR     73  55  53 E9        30.19R
PHILLIPSBURG   CLEAR     75  55  50 E13       30.19R
SMITH CENTER   CLEAR     70  57  64 E9        30.20R
HAYS           PTCLDY    75  57  53 SE9       30.19R
RUSSELL        PTCLDY    74  57  55 E9        30.18R
CONCORDIA      PTCLDY    70  57  63 E6        30.20R
SALINA         CLEAR     79  54  41 NE9       30.18R
TOPEKA         CLEAR     70  58  65 N5        30.18R



USA.gov is the U.S. government's official web portal to all federal, state and local government web resources and services.